Change the Weather History Date:

Friday, March 22, 2013

  Actual Average Record
Temperature  
Mean Temperature 54 °F -  
Max Temperature 61 °F 65 °F 71 °F (2012)
Min Temperature 48 °F 48 °F 37 °F (1999)
Degree Days  
Heating Degree Days 10    
Growing Degree Days 4 (Base 50)    
Moisture  
Dew Point 44 °F    
Average Humidity 70    
Maximum Humidity 88    
Minimum Humidity 41    
Precipitation  
Precipitation 0.00 in 0.09 in - ()
Sea Level Pressure  
Sea Level Pressure 29.79 in    
Wind  
Wind Speed 16 mph ()    
Max Wind Speed 24 mph    
Max Gust Speed 34 mph    
Visibility 6.5 miles    
Events Rain    
Averages and records for this station are not official NWS values.
T = Trace of Precipitation, MM = Missing Value Source: Averaged Metar Reports

Daily Weather History Graph

Daily Weather History Graph

Search for Another Location

Airport or City:

Trip Planner

Search our weather history database for the weather conditions in past years. The results will help you decide how hot, cold, wet, or windy it might be!

Date:

Astronomy

Mar. 22, 2013 Rise Set
Actual Time 6:40 AM EET 6:54 PM EET
Civil Twilight 6:13 AM EET 7:21 PM EET
Nautical Twilight 5:42 AM EET 7:52 PM EET
Astronomical Twilight 5:10 AM EET 8:24 PM EET
Moon 2:04 PM EET (3/22) 3:28 AM EET (3/22)
Length of Visible Light 13h 07m
Length of Day
12h 13m
Waxing Gibbous, 75% of the Moon is Illuminated
Mar 22
Waxing Gibbous
Mar 27
Full
Apr 3
Last Quarter
Apr 10
New
Apr 18
First Quarter

Hourly Weather History & Observations

Time (EET) Temp. Dew Point Humidity Pressure Visibility Wind Dir Wind Speed Gust Speed Precip Events Conditions
12:20 AM 48.2 °F 44.6 °F 87% 29.74 in 6.2 mi NW 16.1 mph 27.6 mph N/A Rain Light Rain
12:50 AM 48.2 °F 44.6 °F 87% 29.74 in 6.2 mi NW 18.4 mph 29.9 mph N/A Rain Light Rain
1:20 AM 48.2 °F 44.6 °F 87% 29.74 in 6.2 mi NNW 16.1 mph 27.6 mph N/A Rain Light Rain
1:50 AM 48.2 °F 44.6 °F 87% 29.74 in 6.2 mi NNW 20.7 mph 32.2 mph N/A Rain Light Rain
2:00 AM 49 °F 44 °F 79% 29.74 in 6 mi NNW 20.7 mph - - Rain Light Rain
2:20 AM 48.2 °F 44.6 °F 87% 29.74 in 6.2 mi NNW 23.0 mph 34.5 mph N/A   Mostly Cloudy
2:50 AM 50.0 °F 46.4 °F 87% 29.74 in 6.2 mi NNW 20.7 mph 32.2 mph N/A   Mostly Cloudy
3:20 AM 50.0 °F 46.4 °F 87% 29.74 in 6.2 mi NNW 23.0 mph 34.5 mph N/A   Mostly Cloudy
3:50 AM 50.0 °F 46.4 °F 87% 29.74 in 6.2 mi NNW 23.0 mph - N/A   Mostly Cloudy
4:20 AM 50.0 °F 46.4 °F 87% 29.74 in 6.2 mi NNW 13.8 mph 25.3 mph N/A   Mostly Cloudy
4:50 AM 51.8 °F 46.4 °F 82% 29.74 in 6.2 mi NW 17.3 mph 31.1 mph N/A   Mostly Cloudy
5:20 AM 51.8 °F 46.4 °F 82% 29.74 in 6.2 mi NNW 17.3 mph 28.8 mph N/A   Mostly Cloudy
5:50 AM 51.8 °F 48.2 °F 88% 29.74 in 6.2 mi NNW 16.1 mph - N/A   Mostly Cloudy
6:20 AM 51.8 °F 48.2 °F 88% 29.74 in 6.2 mi North 12.7 mph 24.2 mph N/A   Scattered Clouds
6:50 AM 51.8 °F 44.6 °F 76% 29.74 in 6.2 mi North 15.0 mph - N/A   Scattered Clouds
7:20 AM 51.8 °F 44.6 °F 76% 29.74 in 6.2 mi North 11.5 mph - N/A   Scattered Clouds
7:50 AM 51.8 °F 44.6 °F 76% 29.77 in 6.2 mi NNW 13.8 mph - N/A   Scattered Clouds
8:00 AM 53 °F 44 °F 64% 29.77 in 12 mi NNW 13.8 mph - -   Partly Cloudy
8:20 AM 51.8 °F 44.6 °F 76% 29.77 in 6.2 mi North 12.7 mph - N/A   Scattered Clouds
8:50 AM 53.6 °F 44.6 °F 72% 29.77 in 6.2 mi North 11.5 mph - N/A   Partly Cloudy
9:20 AM 53.6 °F 44.6 °F 72% 29.77 in 6.2 mi North 11.5 mph - N/A   Partly Cloudy
9:50 AM 55.4 °F 42.8 °F 63% 29.80 in 6.2 mi NNW 15.0 mph - N/A   Partly Cloudy
10:20 AM 55.4 °F 42.8 °F 63% 29.80 in 6.2 mi NNW 16.1 mph - N/A   Partly Cloudy
10:50 AM 57.2 °F 42.8 °F 59% 29.80 in 6.2 mi NNW 20.7 mph - N/A   Partly Cloudy
11:20 AM 57.2 °F 42.8 °F 59% 29.80 in 6.2 mi NNW 24.2 mph - N/A   Partly Cloudy
11:50 AM 57.2 °F 42.8 °F 59% 29.80 in 6.2 mi NNW 23.0 mph - N/A   Partly Cloudy
12:20 PM 57.2 °F 42.8 °F 59% 29.80 in 6.2 mi NNW 23.0 mph - N/A   Partly Cloudy
12:50 PM 59.0 °F 42.8 °F 55% 29.74 in 6.2 mi NNW 21.9 mph 34.5 mph N/A   Partly Cloudy
1:20 PM 59.0 °F 42.8 °F 55% 29.74 in 6.2 mi NNW 23.0 mph 34.5 mph N/A   Partly Cloudy
1:50 PM 59.0 °F 42.8 °F 55% 29.80 in 6.2 mi NNW 24.2 mph - N/A   Partly Cloudy
2:00 PM 60 °F 43 °F 41% 29.82 in 12 mi NNW 24.2 mph - -   Scattered Clouds
2:20 PM 59.0 °F 42.8 °F 55% 29.80 in 6.2 mi NNW 24.2 mph - N/A   Partly Cloudy
2:50 PM 59.0 °F 42.8 °F 55% 29.80 in 6.2 mi NNW 23.0 mph 34.5 mph N/A   Partly Cloudy
3:20 PM 60.8 °F 42.8 °F 52% 29.80 in 6.2 mi NNW 20.7 mph - N/A   Partly Cloudy
3:50 PM 60.8 °F 42.8 °F 52% 29.80 in 6.2 mi NNW 21.9 mph - N/A   Partly Cloudy
4:20 PM 60.8 °F 42.8 °F 52% 29.80 in 6.2 mi NNW 20.7 mph 32.2 mph N/A   Partly Cloudy
4:50 PM 60.8 °F 42.8 °F 52% 29.80 in 6.2 mi NNW 19.6 mph - N/A   Partly Cloudy
5:20 PM 60.8 °F 42.8 °F 52% 29.80 in 6.2 mi North 18.4 mph - N/A   Partly Cloudy
5:50 PM 60.8 °F 42.8 °F 52% 29.80 in 6.2 mi NNW 18.4 mph - N/A   Partly Cloudy
6:20 PM 60.8 °F 42.8 °F 52% 29.80 in 6.2 mi NNW 16.1 mph - N/A   Partly Cloudy
6:50 PM 59.0 °F 41.0 °F 51% 29.83 in - NW 15.0 mph - N/A   Clear
7:20 PM 57.2 °F 41.0 °F 55% 29.83 in - NNW 13.8 mph - N/A   Clear
7:50 PM 53.6 °F 44.6 °F 72% 29.83 in - NNW 11.5 mph - N/A   Clear
8:00 PM 53 °F 44 °F 62% 29.85 in 6 mi NNW 11.5 mph - -  
8:20 PM 51.8 °F 44.6 °F 76% 29.83 in - NW 9.2 mph - N/A   Clear
8:50 PM 51.8 °F 44.6 °F 76% 29.83 in - NNW 6.9 mph - N/A   Clear
9:20 PM 51.8 °F 44.6 °F 76% 29.83 in - NW 11.5 mph - N/A   Clear
9:50 PM 51.8 °F 44.6 °F 76% 29.86 in - NW 8.1 mph - N/A   Clear
10:20 PM 51.8 °F 44.6 °F 76% 29.86 in - NNW 8.1 mph - N/A   Clear
10:50 PM 50.0 °F 44.6 °F 82% 29.89 in - NW 9.2 mph - N/A   Clear
11:20 PM 50.0 °F 44.6 °F 82% 29.89 in - NNW 9.2 mph - N/A   Clear
11:50 PM 48.2 °F 44.6 °F 87% 29.89 in - NNW 8.1 mph - N/A   Clear